Bloomington, IL

1:17 PM CDT on July 22, 2017 (GMT -0500)
Central Ill Regional

Weather History for KBMI - August, 2014

Change the Weather History Date:

Wednesday, August 20, 2014

  Actual Average Record
Temperature  
Mean Temperature 70 °F -  
Max Temperature 79 °F 81 °F 93 °F (2010)
Min Temperature 62 °F 52 °F 52 °F (1978)
Cooling Degree Days 6    
Growing Degree Days 20 (Base 50)    
Moisture  
Dew Point 66 °F    
Average Humidity 84    
Maximum Humidity 94    
Minimum Humidity 64    
Precipitation  
Precipitation 0.02 in - - ()
Sea Level Pressure  
Sea Level Pressure 29.90 in    
Wind  
Wind Speed 7 mph (SW)    
Max Wind Speed 15 mph    
Max Gust Speed -    
Visibility 9 miles    
Events Rain    
Averages and records for this station are not official NWS values.
T = Trace of Precipitation, MM = Missing Value Source: NWS Daily Summary

Daily Weather History Graph

Daily Weather History Graph

Search for Another Location

Airport or City:

Trip Planner

Search our weather history database for the weather conditions in past years. The results will help you decide how hot, cold, wet, or windy it might be!

Date:

Astronomy

Aug. 20, 2014 Rise Set
Actual Time 6:11 AM CDT 7:46 PM CDT
Civil Twilight 5:42 AM CDT 8:14 PM CDT
Nautical Twilight 5:07 AM CDT 8:49 PM CDT
Astronomical Twilight 4:30 AM CDT 9:26 PM CDT
Moon 1:50 AM CDT (8/20) 4:31 PM CDT (8/20)
Length of Visible Light 14h 32m
Length of Day
13h 34m
Waning Crescent, 20% of the Moon is Illuminated
Aug 20
Waning Crescent
Aug 25
New
Sep 2
First Quarter
Sep 8
Full
Sep 15
Last Quarter

Hourly Weather History & Observations

Time (CDT) Temp. Dew Point Humidity Pressure Visibility Wind Dir Wind Speed Gust Speed Precip Events Conditions
12:56 AM 68.9 °F 65.8 °F 90% 29.83 in 10.0 mi WSW 5.8 mph - N/A   Clear
1:56 AM 68.9 °F 65.8 °F 90% 29.82 in 10.0 mi West 5.8 mph - N/A   Clear
2:56 AM 68.9 °F 64.9 °F 87% 29.82 in 10.0 mi West 4.6 mph - N/A   Clear
3:56 AM 66.9 °F 63.9 °F 90% 29.83 in 10.0 mi Calm Calm - N/A   Clear
4:56 AM 63.9 °F 61.9 °F 93% 29.84 in 10.0 mi SW 3.5 mph - N/A   Clear
5:56 AM 63.9 °F 61.9 °F 93% 29.86 in 10.0 mi Calm Calm - N/A   Clear
6:04 AM 62.6 °F 60.8 °F 94% 29.90 in 1.2 mi SW 4.6 mph - N/A   Clear
6:11 AM 62.6 °F 60.8 °F 94% 29.89 in 10.0 mi SSW 3.5 mph - N/A   Clear
6:56 AM 63.0 °F 61.0 °F 93% 29.86 in 10.0 mi South 3.5 mph - N/A   Clear
7:56 AM 70.0 °F 64.9 °F 84% 29.89 in 10.0 mi SSW 4.6 mph - N/A   Partly Cloudy
8:56 AM 73.9 °F 65.8 °F 76% 29.89 in 10.0 mi South 4.6 mph - N/A   Partly Cloudy
9:56 AM 73.9 °F 66.9 °F 79% 29.91 in 10.0 mi South 5.8 mph - N/A   Mostly Cloudy
10:56 AM 72.9 °F 68.0 °F 85% 29.97 in 10.0 mi WSW 10.4 mph - N/A   Scattered Clouds
11:38 AM 71.6 °F 68.0 °F 88% 29.97 in 2.5 mi South 8.1 mph - 0.01 in Rain Rain
11:56 AM 70.9 °F 68.9 °F 93% 29.91 in 10.0 mi South 13.8 mph - 0.02 in Rain Light Rain
12:56 PM 73.9 °F 68.9 °F 84% 29.94 in 10.0 mi SW 9.2 mph - 0.00 in   Scattered Clouds
1:56 PM 75.9 °F 65.8 °F 71% 29.93 in 10.0 mi SW 15.0 mph - N/A   Clear
2:56 PM 74.8 °F 65.8 °F 73% 29.91 in 10.0 mi SW 10.4 mph - N/A   Clear
3:56 PM 77.0 °F 68.0 °F 74% 29.92 in 10.0 mi SW 12.7 mph - 0.00 in   Clear
4:56 PM 79.9 °F 66.9 °F 64% 29.91 in 10.0 mi SW 15.0 mph - 0.00 in Rain Light Rain
5:56 PM 75.9 °F 66.9 °F 74% 29.92 in 10.0 mi SW 11.5 mph - 0.00 in Rain Light Rain
6:56 PM 77.9 °F 68.9 °F 74% 29.91 in 10.0 mi SW 12.7 mph - 0.00 in   Clear
7:56 PM 74.8 °F 68.0 °F 79% 29.90 in 10.0 mi SW 9.2 mph - N/A   Clear
8:56 PM 72.9 °F 68.0 °F 85% 29.91 in 10.0 mi SSW 10.4 mph - N/A   Clear
9:56 PM 72.9 °F 68.0 °F 85% 29.95 in 10.0 mi South 8.1 mph - N/A   Clear
10:56 PM 70.9 °F 68.0 °F 91% 29.95 in 10.0 mi SSW 8.1 mph - N/A   Clear
11:56 PM 70.9 °F 68.0 °F 91% 29.96 in 10.0 mi SSW 10.4 mph - N/A   Clear